Vorticity
8 6 2 4 5 3 3 1 4 3 5 4 4 3 5 5 4 5 6 6 8 7 5 4 4 3 4 7 9 10 12 8 7 8 7 6 6 6 5 5 5 5 6
8 7 8 6 4 3 3 3 4 -0 4 3 5 3 5 5 5 3 7 8 9 8 6 4 5 5 4 5 6 9 9 9 9 8 7 5 7 12 3 4 6 4 4
8 7 9 4 6 4 4 3 4 2 4 5 3 2 3 4 5 5 4 8 10 8 6 4 5 4 2 3 5 5 9 9 8 10 7 5 2 4 3 7 9 1 5
6 8 15 8 2 6 5 3 2 4 3 3 4 4 4 5 4 5 4 8 8 8 6 4 5 3 2 2 3 5 6 8 8 7 7 6 3 2 6 8 2 5 6
1 5 7 11 14 6 5 7 5 5 5 3 5 4 5 6 6 5 5 5 8 8 6 4 6 2 2 1 3 4 6 7 7 7 7 6 6 6 6 4 5 5 5
7 4 5 6 5 14 10 4 4 2 3 3 2 2 3 6 5 5 4 5 7 6 7 7 7 5 2 2 3 3 5 6 7 7 7 7 5 5 6 6 6 5 5
6 7 2 4 2 4 11 9 6 5 5 5 4 4 3 6 3 3 4 7 6 6 5 7 5 8 2 3 2 3 4 6 6 7 5 6 6 6 6 6 5 5 4
8 7 9 9 3 -1 -1 5 7 8 6 4 2 4 6 3 3 2 5 5 6 6 5 6 5 10 2 2 3 2 3 5 6 6 7 7 7 6 6 6 6 6 5
10 8 7 8 12 8 1 1 1 -0 1 2 3 3 2 2 7 3 2 5 6 7 6 4 5 6 9 1 -0 3 3 3 5 6 6 6 7 7 6 6 6 6 6
6 6 8 9 10 9 12 13 9 5 3 1 3 6 4 5 6 1 5 6 6 6 6 6 6 4 7 7 4 2 3 3 3 4 5 5 7 7 7 6 6 6 6
3 4 4 5 6 7 9 10 10 10 9 7 6 4 7 9 7 4 4 5 5 6 4 6 7 6 6 4 4 4 4 3 3 3 3 4 5 6 7 7 7 7 6
5 5 6 6 5 4 4 5 6 7 9 9 9 7 2 1 7 7 7 4 4 6 6 5 6 7 8 8 6 8 8 4 3 3 3 3 4 5 6 7 7 7 7
7 7 6 6 7 7 7 6 5 5 5 5 6 6 7 7 3 2 1 5 3 2 4 4 5 5 6 8 8 7 8 7 3 3 3 3 3 3 4 5 6 7 7
6 6 6 6 6 6 6 6 6 6 6 7 7 7 7 6 8 7 3 4 1 1 3 4 3 4 4 5 10 11 6 8 6 3 4 4 3 3 3 4 5 5 6
8 7 7 7 7 7 7 7 8 8 8 7 6 6 5 7 10 11 8 3 6 3 -0 3 7 8 5 3 7 6 10 9 7 6 5 4 4 3 3 3 5 4 5
7 8 8 8 7 7 7 8 8 8 9 9 10 10 8 8 5 5 9 13 8 6 8 7 7 5 5 6 11 2 4 6 10 7 5 5 4 3 4 3 4 3 4
9 7 8 8 9 9 10 11 14 14 14 15 13 11 11 12 9 10 7 5 12 5 4 5 6 1 3 5 7 12 11 6 8 9 6 5 6 3 4 3 3 4 3
8 7 7 6 8 9 13 14 12 12 11 10 10 12 14 16 14 10 10 9 7 11 5 4 6 6 7 8 8 11 2 10 6 6 6 6 6 7 7 3 -1 5 3
6 6 8 8 10 14 15 13 9 7 9 11 12 11 10 9 10 15 14 13 10 8 10 5 7 4 6 4 6 9 5 6 4 6 7 11 14 5 16 2 2 5 3
8 8 8 10 13 13 10 7 8 6 12 8 8 8 10 14 14 9 14 14 16 11 10 8 6 7 8 6 3 4 5 3 4 1 16 8 17 25 26 15 13 9 5
6 6 5 9 13 12 9 7 12 17 10 14 13 6 9 18 21 25 12 16 16 17 12 13 7 6 8 6 4 6 6 4 6 9 10 9 -8 27 19 -10 44 -7 5
5 7 9 11 16 10 6 7 9 6 8 10 8 12 14 17 12 17 22 17 21 19 17 15 15 9 8 8 6 6 8 8 2 13 5 3 5 17 3 12 -18 4 32
9 11 12 17 12 6 6 6 12 12 11 9 19 11 18 17 16 13 16 15 21 25 23 11 19 16 6 7 4 -0 11 9 12 3 10 3 22 10 14 22 28 -2 3
11 11 19 13 6 7 7 9 7 18 15 8 17 5 12 18 9 22 28 23 22 26 22 21 8 17 9 3 8 9 2 22 8 -8 5 -0 2 11 16 15 7 18 15
9 12 16 11 6 4 8 11 6 4 9 19 8 11 28 10 33 18 13 28 20 25 22 28 13 7 16 17 -2 4 32 17 2 -31 10 7 10 8 7 12 8 7 5
10 13 18 13 6 9 11 12 12 13 13 11 10 11 13 19 29 14 11 -7 23 5 24 23 21 13 11 19 19 -1 26 11 -13 -2 11 10 3 4 1 6 7 13 22
Height
3172 3172 3173 3173 3174 3174 3173 3174 3173 3173 3172 3172 3171 3170 3170 3169 3168 3167 3166 3165 3164 3163 3163 3163 3163 3162 3161 3159 3158 3157 3156 3155 3155 3155 3154 3154 3154 3154 3155 3155 3156 3156 3156
3171 3171 3172 3173 3173 3174 3174 3173 3174 3173 3173 3172 3171 3171 3170 3169 3168 3167 3167 3165 3164 3164 3163 3163 3163 3162 3162 3160 3159 3158 3157 3156 3156 3156 3156 3155 3154 3154 3154 3154 3155 3156 3157
3170 3170 3171 3172 3172 3172 3173 3173 3173 3173 3172 3172 3171 3171 3170 3169 3168 3167 3166 3165 3164 3164 3164 3163 3163 3162 3161 3160 3159 3158 3157 3156 3156 3156 3155 3156 3155 3155 3155 3154 3155 3156 3156
3169 3170 3170 3170 3170 3170 3171 3171 3172 3172 3171 3171 3171 3171 3170 3169 3168 3167 3166 3165 3164 3163 3163 3163 3163 3162 3161 3160 3159 3157 3156 3156 3156 3155 3155 3155 3155 3155 3155 3155 3155 3156 3156
3168 3168 3168 3169 3169 3170 3170 3170 3170 3170 3170 3170 3170 3170 3169 3168 3167 3166 3165 3164 3163 3163 3162 3162 3162 3161 3161 3160 3159 3158 3157 3156 3155 3155 3154 3154 3155 3155 3155 3155 3155 3155 3156
3166 3166 3167 3167 3167 3168 3168 3169 3168 3168 3168 3168 3168 3168 3167 3167 3166 3165 3164 3163 3161 3161 3161 3161 3161 3161 3160 3159 3158 3157 3156 3155 3155 3154 3154 3154 3153 3154 3154 3154 3154 3154 3154
3164 3163 3165 3165 3166 3166 3165 3165 3166 3165 3166 3166 3166 3166 3166 3165 3165 3164 3163 3162 3161 3160 3158 3158 3159 3159 3159 3159 3158 3157 3156 3155 3154 3153 3152 3152 3153 3153 3153 3153 3153 3153 3153
3162 3162 3162 3163 3163 3163 3163 3163 3163 3163 3163 3163 3163 3163 3163 3162 3162 3161 3161 3160 3159 3158 3158 3157 3157 3156 3156 3156 3156 3155 3155 3154 3153 3152 3151 3151 3151 3151 3151 3152 3152 3152 3152
3160 3160 3160 3160 3160 3160 3160 3160 3160 3160 3159 3159 3159 3159 3159 3158 3158 3158 3157 3157 3156 3156 3154 3154 3154 3154 3154 3153 3153 3153 3152 3152 3152 3151 3150 3149 3149 3149 3149 3150 3150 3150 3151
3159 3158 3157 3156 3156 3156 3156 3156 3156 3156 3155 3155 3154 3154 3153 3153 3153 3153 3153 3153 3152 3152 3151 3151 3151 3150 3150 3150 3150 3150 3150 3149 3149 3149 3148 3147 3147 3147 3147 3147 3147 3148 3148
3157 3156 3155 3154 3153 3153 3152 3152 3151 3151 3150 3149 3149 3148 3148 3147 3148 3147 3148 3148 3147 3147 3147 3147 3147 3147 3146 3146 3146 3146 3146 3146 3147 3146 3146 3145 3145 3145 3145 3145 3145 3145 3145
3153 3152 3152 3151 3149 3148 3148 3147 3146 3146 3146 3144 3143 3143 3142 3142 3141 3141 3141 3141 3142 3142 3142 3142 3142 3141 3141 3141 3141 3141 3142 3142 3143 3143 3143 3143 3142 3142 3142 3142 3142 3142 3142
3149 3149 3147 3146 3145 3144 3143 3141 3140 3140 3139 3138 3138 3136 3135 3135 3135 3135 3135 3135 3135 3135 3135 3135 3136 3135 3135 3135 3135 3135 3136 3136 3138 3138 3139 3139 3139 3139 3139 3139 3139 3139 3140
3145 3144 3142 3141 3140 3138 3138 3136 3135 3133 3132 3131 3130 3129 3128 3128 3128 3128 3128 3128 3128 3129 3128 3128 3129 3129 3129 3129 3129 3129 3130 3130 3131 3132 3133 3134 3135 3135 3135 3136 3136 3136 3136
3141 3139 3137 3135 3134 3132 3131 3129 3128 3126 3125 3124 3122 3122 3119 3118 3118 3119 3120 3120 3119 3120 3120 3121 3121 3121 3121 3122 3123 3123 3124 3125 3126 3126 3127 3128 3129 3130 3130 3131 3131 3132 3132
3136 3134 3131 3129 3127 3125 3123 3121 3120 3118 3116 3115 3114 3113 3111 3109 3108 3108 3109 3110 3110 3111 3110 3111 3112 3113 3113 3113 3114 3115 3117 3117 3118 3119 3121 3121 3122 3123 3125 3125 3126 3127 3127
3129 3127 3125 3123 3121 3118 3115 3113 3111 3109 3107 3106 3105 3103 3102 3101 3098 3097 3096 3097 3099 3101 3100 3100 3102 3103 3103 3104 3105 3107 3108 3110 3111 3112 3113 3114 3115 3115 3117 3118 3120 3120 3121
3124 3122 3119 3116 3114 3111 3107 3105 3103 3101 3099 3097 3095 3093 3091 3090 3088 3086 3085 3085 3086 3087 3088 3090 3091 3092 3094 3096 3097 3098 3099 3100 3102 3103 3104 3105 3107 3107 3108 3110 3111 3112 3113
3118 3116 3113 3109 3106 3103 3101 3099 3096 3093 3091 3088 3086 3083 3081 3078 3076 3075 3074 3074 3074 3075 3076 3078 3080 3082 3084 3086 3088 3089 3090 3091 3093 3095 3095 3096 3096 3095 3098 3100 3100 3103 3105
3113 3111 3108 3104 3101 3098 3095 3093 3091 3087 3083 3080 3077 3075 3073 3070 3066 3063 3062 3061 3062 3062 3065 3067 3069 3072 3075 3078 3079 3080 3081 3082 3083 3085 3086 3087 3087 3086 3085 3087 3089 3092 3093
3109 3106 3102 3098 3094 3092 3090 3087 3085 3081 3078 3075 3071 3067 3063 3058 3055 3053 3049 3049 3049 3049 3051 3055 3058 3061 3064 3068 3069 3069 3071 3073 3074 3075 3077 3078 3080 3079 3080 3080 3080 3082 3083
3104 3100 3096 3091 3088 3086 3083 3080 3076 3073 3071 3068 3065 3058 3053 3049 3044 3043 3040 3037 3037 3037 3039 3042 3046 3050 3054 3057 3059 3061 3061 3063 3063 3067 3068 3069 3071 3069 3071 3071 3073 3073 3074
3098 3094 3089 3086 3084 3082 3080 3076 3072 3069 3064 3062 3057 3052 3048 3043 3038 3034 3032 3028 3027 3027 3029 3033 3035 3040 3043 3048 3051 3053 3052 3052 3056 3058 3060 3061 3062 3062 3063 3067 3067 3066 3067
3094 3089 3086 3083 3081 3079 3076 3073 3070 3066 3061 3057 3053 3048 3043 3038 3032 3030 3026 3021 3020 3020 3020 3023 3027 3031 3034 3038 3041 3043 3045 3045 3048 3048 3051 3053 3054 3055 3057 3057 3057 3058 3060
3090 3086 3082 3080 3078 3075 3072 3069 3066 3061 3057 3052 3048 3043 3038 3033 3029 3026 3022 3018 3015 3013 3014 3015 3019 3023 3026 3029 3033 3036 3036 3036 3036 3036 3040 3043 3044 3047 3049 3050 3051 3052 3052
3087 3083 3079 3077 3075 3071 3068 3065 3063 3059 3054 3050 3046 3040 3034 3030 3028 3024 3020 3017 3014 3011 3010 3010 3012 3017 3018 3022 3023 3027 3026 3026 3026 3025 3030 3034 3036 3039 3040 3042 3044 3043 3042